Regional Weather Roundup
Issued by NWS

Home | Current Version | Previous Version | Text Only | Print | Product List | Glossary On
Versions: 1 2 3 4 5 6 7 8 9 10 11 12 13 14 15 16 17 18 19 20 21 22 23 24 25 26 27 28 29 30 31 32 33 34 35 36 37 38 39 40 41 42 43 44 45 46 47 48 49 50
000
ASUS43 KLSX 221859
RWRMO

WEATHER SUMMARY FOR MISSOURI
NATIONAL WEATHER SERVICE SPRINGFIELD MO
100 PM CST MON DEC 22 2014

NOTE: "FAIR" INDICATES FEW OR NO CLOUDS BELOW 12,000 FEET WITH NO
       SIGNIFICANT WEATHER AND/OR OBSTRUCTIONS TO VISIBILITY.
       CURRENT SKY AND/OR WEATHER CONDITIONS ARE NOT AVAILABLE FOR
       CHILLICOTHE AND FARMINGTON.

MOZ001>031-035>038-043-044-053-054-222000-
...NORTHERN AND WESTERN MISSOURI...

CITY           SKY/WX    TMP DP  RH WIND       PRES   REMARKS
KANSAS CTY INT LGT RAIN  44  44 100 S9        29.47F VSB 1
KANSAS C DTWN  LGT RAIN  45  43  93 S7        29.48F FOG
LEE`S SUMMIT   LGT RAIN  44  43  96 S7        29.48F FOG
ST JOSEPH      LGT RAIN  44  43  96 S8        29.47F FOG
CHILLICOTHE      N/A     43  41  93 SE6       29.51F
KIRKSVILLE     LGT RAIN  41  41 100 SE10      29.53F FOG

$$
MOZ066>068-077>081-088>096-101>105-222000-
...SOUTHWEST MISSOURI...

CITY           SKY/WX    TMP DP  RH WIND       PRES   REMARKS
SPRINGFIELD    CLOUDY    47  45  93 S12       29.51F FOG
JOPLIN         LGT RAIN  49  48  97 SW10      29.51F FOG

$$
MOZ032>034-039>042-045>050-055>058-069>072-222000-
...CENTRAL MISSOURI...

CITY           SKY/WX    TMP DP  RH WIND       PRES   REMARKS
COLUMBIA       LGT RAIN  45  44  97 S9        29.54F FOG
JEFFERSON CITY LGT RAIN  48  45  89 SE7       29.55F
ROLLA          RAIN      45  43  93 SE8       29.54F FOG
SEDALIA        LGT RAIN  46  44  93 SE7       29.52F FOG
OSAGE BEACH    CLOUDY    48  45  87 S8        29.53F

$$
MOZ051-052-059>065-222000-
...EAST CENTRAL MISSOURI...

CITY           SKY/WX    TMP DP  RH WIND       PRES   REMARKS
ST LOUIS INTL  LGT RAIN  48  44  86 SE12      29.62F
SPIRIT OF STL  LGT RAIN  47  45  93 SE5       29.60F
ST CHARLES     LGT RAIN  47  45  93 S8        29.61F

$$
MOZ072>076-082>087-097>100-106>115-222000-
...SOUTH CENTRAL AND SOUTHEAST MISSOURI...

CITY           SKY/WX    TMP DP  RH WIND       PRES   REMARKS
CAPE GIRARDEAU CLOUDY    50  48  93 SE15      29.65F FOG
FARMINGTON     CLOUDY    46  46 100 SE9       29.62F
POPLAR BLUFF   LGT RAIN  51  48  89 S10       29.62F
WEST PLAINS    CLOUDY    47  45  93 S12       29.56F FOG

$$


USA.gov is the U.S. government's official web portal to all federal, state and local government web resources and services.